User: anonymous   Login
Location: Boncourt
(49.6160°N, 3.9448°E)
Time: 00:11:51
(UTC+00:00)
Language:

PAYLOAD B - Orbit

View from above orbital plane
View from above orbital plane
View from above satellite
View from above satellite

Ground track
Ground track

The orbit data is extracted from the following two-line orbital elements,

1 27431U 02024B   23156.56158508  .00000039  00000-0  48098-4 0  9995
2 27431  99.0987 186.7508 0016510 110.7560 249.5380 14.09861406 83381
Epoch (UTC): 05 June 2023 13:28:40
Eccentricity: 0.0016510
inclination: 99.0987°
perigee height: 848 km
apogee height: 872 km
right ascension of ascending node: 186.7508°
argument of perigee: 110.7560°
revolutions per day: 14.09861406
mean anomaly at epoch: 249.5380°
orbit number at epoch: 8338

The dashed part of the orbit path shows where the satellite is in the earth's shadow,  

DLR